Canadian, TX

4:40 PM CST on December 06, 2016 (GMT -0600)
Hemphill County

Weather History for KHHF - December, 2012

Change the Weather History Date:

Sunday, December 9, 2012

  Actual Average (KPPA) Record (KPPA)
Temperature  
Mean Temperature 35 °F -  
Max Temperature 42 °F 48 °F 76 °F (1970)
Min Temperature 26 °F 24 °F 0 °F (1978)
Degree Days  
Heating Degree Days 30    
Moisture  
Dew Point 18 °F    
Average Humidity 53    
Maximum Humidity 100    
Minimum Humidity 26    
Precipitation  
Precipitation 0.00 in - - ()
Sea Level Pressure  
Sea Level Pressure 30.02 in    
Wind  
Wind Speed 12 mph (North)    
Max Wind Speed 25 mph    
Max Gust Speed 34 mph    
Visibility 9 miles    
Events Fog , Snow    
Averages and records for this station are not official NWS values.
T = Trace of Precipitation, MM = Missing Value Source: NWS Daily Summary

Daily Weather History Graph

Daily Weather History Graph

Search for Another Location

Airport or City:

Trip Planner

Search our weather history database for the weather conditions in past years. The results will help you decide how hot, cold, wet, or windy it might be!

Date:

Astronomy

Dec. 09, 2012 Rise Set
Actual Time 7:40 AM CST 5:27 PM CST
Civil Twilight 7:12 AM CST 5:56 PM CST
Nautical Twilight 6:40 AM CST 6:28 PM CST
Astronomical Twilight 6:09 AM CST 6:59 PM CST
Moon 3:21 AM CST (12/9) 2:30 PM CST (12/9)
Length of Visible Light 10h 43m
Length of Day
9h 47m
Waning Crescent, 18% of the Moon is Illuminated
Dec 9
Waning Crescent
Dec 13
New
Dec 19
First Quarter
Dec 28
Full
Jan 4
Last Quarter

Hourly Weather History & Observations

Time (CST) Temp. Windchill Dew Point Humidity Pressure Visibility Wind Dir Wind Speed Gust Speed Precip Events Conditions
12:15 AM 41.0 °F 38.0 °F 39.2 °F 93% 29.71 in 5.0 mi SSW 4.6 mph - N/A   Clear
12:35 AM 41.0 °F - 37.4 °F 87% 29.70 in 5.0 mi Calm Calm - N/A   Clear
12:55 AM 37.4 °F - 37.4 °F 100% 29.72 in 4.0 mi Calm Calm - N/A   Clear
1:15 AM 37.4 °F - 35.6 °F 93% 29.72 in 3.0 mi Calm Calm - N/A   Clear
1:35 AM 35.6 °F 30.7 °F 35.6 °F 100% 29.75 in 0.5 mi North 5.8 mph - N/A Fog Fog
1:55 AM 37.4 °F 32.1 °F 35.6 °F 93% 29.76 in 2.0 mi NNE 6.9 mph - N/A   Mostly Cloudy
2:15 AM 39.2 °F 35.9 °F 39.2 °F 100% 29.77 in 4.0 mi NNE 4.6 mph - N/A   Overcast
2:35 AM 41.0 °F 37.1 °F 39.2 °F 93% 29.78 in 3.0 mi North 5.8 mph - N/A   Overcast
2:55 AM 42.8 °F 35.8 °F 41.0 °F 93% 29.80 in 4.0 mi NNE 13.8 mph - N/A   Overcast
3:15 AM 42.8 °F 35.4 °F 41.0 °F 93% 29.81 in 4.0 mi NNE 15.0 mph - N/A   Overcast
3:35 AM 41.0 °F 32.2 °F 41.0 °F 100% 29.83 in 4.0 mi North 18.4 mph 24.2 mph N/A   Overcast
3:55 AM 41.0 °F 33.9 °F 39.2 °F 93% 29.84 in 3.0 mi North 12.7 mph 18.4 mph N/A   Overcast
4:15 AM 41.0 °F 34.7 °F 39.2 °F 93% 29.85 in 5.0 mi North 10.4 mph - N/A   Overcast
4:35 AM 41.0 °F 34.7 °F 39.2 °F 93% 29.87 in 7.0 mi North 10.4 mph 19.6 mph N/A   Overcast
4:55 AM 41.0 °F 33.9 °F 39.2 °F 93% 29.88 in 7.0 mi North 12.7 mph 23.0 mph N/A   Overcast
5:15 AM 41.0 °F 33.1 °F 37.4 °F 87% 29.88 in 7.0 mi North 15.0 mph 20.7 mph N/A   Overcast
5:35 AM 41.0 °F 32.8 °F 35.6 °F 81% 29.88 in 7.0 mi North 16.1 mph 24.2 mph N/A   Overcast
5:55 AM 39.2 °F 30.5 °F 33.8 °F 81% 29.89 in 10.0 mi NNE 16.1 mph 23.0 mph N/A   Overcast
6:15 AM 37.4 °F 29.3 °F 32.0 °F 81% 29.91 in 10.0 mi North 12.7 mph 16.1 mph N/A   Scattered Clouds
6:35 AM 37.4 °F 31.4 °F 30.2 °F 75% 29.92 in 10.0 mi North 8.1 mph - N/A   Mostly Cloudy
6:55 AM 37.4 °F 30.8 °F 30.2 °F 75% 29.93 in 10.0 mi North 9.2 mph - N/A   Overcast
7:15 AM 37.4 °F 30.8 °F 30.2 °F 75% 29.95 in 10.0 mi North 9.2 mph - N/A   Overcast
7:35 AM 37.4 °F 30.3 °F 28.4 °F 70% 29.95 in 10.0 mi North 10.4 mph 17.3 mph N/A   Overcast
7:55 AM 37.4 °F 30.3 °F 26.6 °F 65% 29.96 in 10.0 mi North 10.4 mph - N/A   Overcast
8:15 AM 37.4 °F 30.8 °F 23.0 °F 56% 29.98 in 10.0 mi North 9.2 mph - N/A   Overcast
8:35 AM 37.4 °F 29.3 °F 23.0 °F 56% 29.99 in 10.0 mi North 12.7 mph 16.1 mph N/A   Overcast
8:55 AM 37.4 °F 28.5 °F 19.4 °F 48% 30.01 in 10.0 mi North 15.0 mph 21.9 mph N/A   Overcast
9:35 AM 37.4 °F 27.2 °F 15.8 °F 41% 30.04 in 10.0 mi North 19.6 mph 26.5 mph N/A   Overcast
9:55 AM 37.4 °F 27.8 °F 14.0 °F 38% 30.05 in 10.0 mi North 17.3 mph 25.3 mph N/A   Overcast
10:15 AM 37.4 °F 26.9 °F 14.0 °F 38% 30.07 in 10.0 mi North 20.7 mph 27.6 mph N/A   Overcast
10:35 AM 37.4 °F 27.2 °F 10.4 °F 33% 30.08 in 10.0 mi North 19.6 mph 28.8 mph N/A   Overcast
10:55 AM 41.0 °F 32.2 °F 12.2 °F 31% 30.09 in 10.0 mi North 18.4 mph 28.8 mph N/A   Mostly Cloudy
11:15 AM 41.0 °F 32.2 °F 10.4 °F 29% 30.09 in 10.0 mi North 18.4 mph 24.2 mph N/A   Scattered Clouds
11:35 AM 41.0 °F 32.2 °F 10.4 °F 29% 30.08 in 10.0 mi North 18.4 mph 27.6 mph N/A   Clear
11:55 AM 41.0 °F 31.4 °F 8.6 °F 26% 30.08 in 10.0 mi North 21.9 mph 29.9 mph N/A   Clear
12:15 PM 41.0 °F 33.1 °F 8.6 °F 26% 30.08 in 10.0 mi North 15.0 mph 31.1 mph N/A   Clear
12:35 PM 41.0 °F 31.4 °F 8.6 °F 26% 30.07 in 10.0 mi North 21.9 mph 25.3 mph N/A   Clear
12:55 PM 41.0 °F 31.9 °F 8.6 °F 26% 30.05 in 10.0 mi North 19.6 mph 26.5 mph N/A   Clear
1:15 PM 41.0 °F 31.4 °F 8.6 °F 26% 30.04 in 10.0 mi North 21.9 mph 27.6 mph N/A   Clear
1:35 PM 41.0 °F 31.6 °F 8.6 °F 26% 30.05 in 10.0 mi North 20.7 mph 28.8 mph N/A   Clear
1:55 PM 39.2 °F 30.2 °F 8.6 °F 28% 30.05 in 10.0 mi North 17.3 mph 27.6 mph N/A   Clear
2:15 PM 37.4 °F 26.9 °F 8.6 °F 30% 30.06 in 10.0 mi North 20.7 mph 29.9 mph N/A   Clear
2:35 PM 37.4 °F 27.5 °F 8.6 °F 30% 30.06 in 10.0 mi North 18.4 mph 29.9 mph N/A   Clear
2:55 PM 37.4 °F 26.9 °F 8.6 °F 30% 30.07 in 10.0 mi North 20.7 mph 27.6 mph N/A   Clear
3:15 PM 35.6 °F 24.2 °F 8.6 °F 33% 30.07 in 10.0 mi North 21.9 mph 31.1 mph N/A   Clear
3:35 PM 35.6 °F 24.8 °F 8.6 °F 33% 30.08 in 10.0 mi North 19.6 mph 32.2 mph N/A   Clear
3:55 PM 33.8 °F 22.5 °F 8.6 °F 35% 30.09 in 10.0 mi North 19.6 mph 27.6 mph N/A   Clear
4:15 PM 33.8 °F 23.2 °F 8.6 °F 35% 30.09 in 10.0 mi North 17.3 mph 23.0 mph N/A   Clear
4:35 PM 32.0 °F 20.1 °F 8.6 °F 38% 30.10 in 10.0 mi North 19.6 mph 27.6 mph N/A   Clear
4:55 PM 32.0 °F 21.6 °F 8.6 °F 38% 30.11 in 10.0 mi North 15.0 mph 25.3 mph N/A   Scattered Clouds
5:15 PM 32.0 °F 20.1 °F 8.6 °F 38% 30.12 in 10.0 mi NNW 19.6 mph 25.3 mph N/A   Mostly Cloudy
5:35 PM 32.0 °F 21.2 °F 8.6 °F 38% 30.13 in 10.0 mi North 16.1 mph 25.3 mph N/A   Overcast
5:55 PM 32.0 °F 20.1 °F 5.0 °F 32% 30.13 in 10.0 mi North 19.6 mph 25.3 mph N/A   Mostly Cloudy
6:15 PM 32.0 °F 20.5 °F 6.8 °F 35% 30.14 in 10.0 mi North 18.4 mph 26.5 mph N/A   Scattered Clouds
6:35 PM 32.0 °F 20.1 °F 6.8 °F 35% 30.15 in 10.0 mi North 19.6 mph 25.3 mph N/A   Mostly Cloudy
6:55 PM 32.0 °F 20.8 °F 6.8 °F 35% 30.16 in 10.0 mi North 17.3 mph 23.0 mph N/A   Overcast
7:15 PM 32.0 °F 21.2 °F 6.8 °F 35% 30.17 in 10.0 mi North 16.1 mph 25.3 mph N/A   Overcast
7:35 PM 32.0 °F 20.1 °F 5.0 °F 32% 30.19 in 10.0 mi North 19.6 mph 23.0 mph N/A   Overcast
7:55 PM 32.0 °F 19.8 °F 5.0 °F 32% 30.19 in 10.0 mi North 20.7 mph 26.5 mph N/A   Overcast
8:15 PM 32.0 °F 19.2 °F 5.0 °F 32% 30.19 in 10.0 mi North 23.0 mph 29.9 mph N/A   Overcast
8:35 PM 32.0 °F 19.2 °F 5.0 °F 32% 30.19 in 10.0 mi North 23.0 mph 34.5 mph N/A   Overcast
8:55 PM 32.0 °F 18.6 °F 5.0 °F 32% 30.19 in 10.0 mi North 25.3 mph 32.2 mph N/A   Scattered Clouds
9:15 PM 30.2 °F 17.8 °F 5.0 °F 34% 30.21 in 10.0 mi NNW 19.6 mph 26.5 mph N/A   Scattered Clouds
9:35 PM 30.2 °F 17.1 °F 5.0 °F 34% 30.20 in 10.0 mi North 21.9 mph 27.6 mph N/A   Overcast
9:55 PM 30.2 °F 17.4 °F 5.0 °F 34% 30.21 in 10.0 mi North 20.7 mph 27.6 mph N/A   Overcast
10:15 PM 28.4 °F 14.7 °F 14.0 °F 55% 30.21 in 5.0 mi North 21.9 mph 29.9 mph N/A Snow Light Snow
10:35 PM 28.4 °F 15.4 °F 6.8 °F 40% 30.21 in 10.0 mi North 19.6 mph 23.0 mph N/A   Overcast
10:55 PM 28.4 °F 16.2 °F 5.0 °F 37% 30.21 in 10.0 mi North 17.3 mph 27.6 mph N/A   Mostly Cloudy
11:15 PM 28.4 °F 15.4 °F 5.0 °F 37% 30.21 in 10.0 mi North 19.6 mph 27.6 mph N/A   Scattered Clouds
11:35 PM 28.4 °F 14.7 °F 5.0 °F 37% 30.21 in 10.0 mi NNW 21.9 mph 28.8 mph N/A   Clear
11:55 PM 26.6 °F 12.7 °F 5.0 °F 40% 30.21 in 10.0 mi NNW 20.7 mph 29.9 mph N/A   Clear